Wetbulb
60.14 58.57 56.75 55.31 54.21 53.94 52.37 51.84 52.63 53.04 51.98 51.83 50.64 50.63 50.93 49.23 47.20 47.24 49.63 57.05 57.55 56.62 56.19 55.94 54.99 54.30 54.04 53.27 52.92 53.16 53.99 54.30 54.76 55.65 55.87 56.43 57.00 57.73 58.12 58.96 59.86 61.07 62.17
57.83 55.43 54.34 53.54 52.69 52.15 52.66 52.51 51.37 50.26 49.26 49.69 49.09 49.30 48.50 46.48 46.16 45.80 46.60 49.33 56.41 56.15 54.94 53.84 53.27 53.49 53.63 52.40 52.22 52.21 52.65 53.16 53.25 53.86 54.35 54.54 55.53 55.95 56.12 56.31 57.09 58.00 59.58
56.05 54.49 53.17 51.61 51.62 52.39 51.92 51.13 49.37 48.77 47.79 48.53 46.86 45.99 46.37 46.05 46.05 46.58 46.12 45.87 52.69 54.95 54.69 52.73 52.33 52.37 52.23 52.14 51.92 51.80 52.16 52.14 52.40 52.73 53.53 53.46 53.43 53.62 53.86 53.90 54.59 55.83 57.18
54.58 53.15 52.48 51.51 51.92 52.24 51.15 49.33 48.03 47.02 45.32 44.03 42.66 42.00 43.66 44.67 45.56 45.22 45.51 45.36 47.62 49.69 53.46 54.58 51.24 51.48 51.09 50.89 51.70 51.81 52.17 52.45 52.07 52.29 52.87 52.39 52.14 52.22 52.18 52.55 53.00 53.76 55.10
54.08 52.29 51.83 51.73 51.66 50.74 49.12 48.90 46.89 45.11 42.87 42.49 43.57 42.37 42.32 42.50 42.92 45.88 45.15 45.49 45.45 45.33 46.08 51.39 50.97 50.36 49.53 49.55 49.81 50.65 51.25 51.30 52.05 52.29 51.34 50.83 50.85 50.86 50.95 51.21 51.64 52.39 53.33
54.20 52.89 52.24 51.20 50.80 49.05 47.68 47.02 45.35 44.55 42.99 42.02 44.51 42.82 40.80 41.77 41.99 41.31 41.28 43.70 42.92 43.21 43.98 44.16 42.01 43.13 48.90 47.65 47.84 48.33 49.18 50.33 50.86 50.74 50.17 49.91 49.61 49.62 50.38 50.87 50.69 51.09 51.74
53.35 52.39 51.77 50.66 48.77 47.56 45.97 45.99 44.11 42.84 42.05 42.00 39.19 39.16 39.64 40.01 40.64 39.80 40.34 40.05 41.62 41.96 41.91 43.35 41.96 41.08 40.72 45.61 45.54 46.87 47.65 48.38 48.21 48.33 48.17 47.76 47.78 48.07 48.74 49.98 50.57 50.63 50.73
52.75 51.33 49.12 48.07 47.39 45.80 45.25 44.44 43.37 42.18 41.29 40.83 38.10 36.83 33.91 36.42 38.30 40.13 38.47 39.10 37.85 39.28 40.39 41.70 40.68 40.97 39.06 38.09 40.46 44.63 45.41 45.46 45.91 46.37 46.05 46.01 46.54 46.72 47.20 48.15 49.73 50.14 50.17
51.78 50.30 49.38 47.55 46.77 45.72 43.95 43.45 42.84 41.92 39.21 40.09 40.34 37.33 33.17 30.82 33.68 36.44 37.10 36.78 36.46 36.23 36.39 37.48 38.41 38.89 38.38 37.25 39.41 40.22 45.01 44.46 44.83 45.13 44.75 44.86 45.19 45.76 46.33 46.49 47.97 48.78 49.66
50.59 50.43 49.01 47.72 46.64 45.99 44.42 43.98 44.80 42.50 40.74 38.49 39.17 41.68 37.86 35.87 31.62 30.62 33.84 35.22 36.05 36.86 35.18 35.04 35.65 37.11 37.61 36.78 40.48 42.44 44.77 44.76 42.46 43.24 43.76 44.24 44.50 44.88 45.26 46.01 46.26 47.64 48.07
50.20 50.13 47.99 46.45 45.16 45.03 43.99 43.43 42.83 43.25 42.31 39.72 38.03 37.73 36.69 35.74 34.57 31.04 28.67 30.77 33.88 35.13 34.99 34.57 34.57 35.11 36.42 36.82 35.83 38.62 43.91 43.30 43.46 42.13 42.11 42.82 43.38 44.03 44.48 45.09 45.47 46.22 47.41
46.26 45.63 45.60 43.76 43.40 42.62 41.86 41.39 41.05 41.22 40.66 39.95 39.17 38.40 37.13 35.01 33.70 32.69 30.47 29.82 30.08 32.14 33.92 34.42 34.25 34.43 35.05 35.15 39.56 43.11 43.16 42.21 42.11 41.04 41.15 41.76 42.44 42.75 43.02 43.49 44.34 45.35 45.74
44.42 42.66 43.20 42.33 41.30 41.28 41.26 40.82 40.10 39.68 40.20 39.56 38.58 38.27 38.82 38.09 37.91 36.33 34.42 32.46 28.83 30.80 31.58 33.00 33.68 34.24 36.57 34.69 35.07 40.48 40.24 39.97 40.35 39.89 40.13 40.42 40.97 41.22 41.67 42.15 42.61 43.51 44.44
44.51 43.43 42.66 41.95 40.77 40.54 40.29 40.22 38.91 38.74 39.11 38.76 38.98 40.48 39.21 38.94 39.84 37.41 36.82 33.55 29.06 28.41 28.77 29.47 32.69 32.99 33.33 32.74 35.50 39.08 34.06 38.54 39.18 39.47 38.92 38.93 39.23 39.72 40.05 40.53 40.86 41.60 42.42
44.45 42.43 41.63 41.76 40.69 40.11 40.60 39.45 38.31 38.06 38.54 38.00 37.76 39.04 39.08 37.89 37.44 36.52 35.47 34.84 33.02 28.49 27.70 29.39 27.82 31.48 31.44 31.71 33.58 32.49 32.22 36.00 38.11 38.29 37.69 37.96 37.99 38.32 38.85 39.27 39.89 40.51 41.48
43.30 41.95 41.66 39.85 39.56 39.93 39.51 38.88 37.67 37.96 37.98 37.42 37.23 35.77 35.63 36.06 35.53 36.11 34.85 34.14 33.10 30.42 24.64 26.93 27.23 28.50 29.75 32.53 33.69 31.95 31.83 36.08 36.05 36.64 36.95 37.87 38.15 37.79 37.77 38.36 38.87 39.33 39.96
43.12 41.03 41.50 39.63 39.41 39.34 39.04 37.34 37.41 38.01 36.75 35.18 34.91 34.87 34.99 35.39 34.52 32.61 30.97 29.33 27.11 26.02 22.84 25.07 27.05 27.58 26.78 27.49 29.64 30.45 31.70 31.21 31.68 35.57 36.42 37.10 37.51 37.48 38.15 38.24 38.29 38.53 39.69
42.63 41.71 40.16 39.69 40.23 39.37 37.71 37.14 36.85 36.13 34.94 34.16 34.02 33.54 33.38 35.02 29.32 28.63 26.93 25.09 24.52 24.64 23.34 22.20 23.64 25.06 24.98 26.49 27.68 27.22 30.62 32.78 31.45 34.26 36.14 36.39 36.72 36.83 36.76 37.18 37.58 38.14 38.50
40.43 40.22 39.83 39.30 39.24 38.73 37.52 37.18 36.00 35.74 35.50 34.56 34.11 33.56 32.56 30.07 26.93 25.84 25.12 24.22 24.12 26.64 23.15 21.88 22.47 24.87 25.04 25.85 26.30 27.87 27.52 28.12 31.30 33.86 34.37 34.76 35.71 36.22 36.39 36.82 37.58 38.05 38.09
39.85 40.25 39.69 39.93 39.61 38.84 38.54 37.94 37.01 34.43 33.08 32.08 31.95 30.96 30.86 28.57 26.44 25.21 25.57 23.63 24.56 22.58 22.60 21.88 22.29 22.44 23.64 25.49 25.23 23.61 25.14 26.83 26.90 30.34 31.87 32.82 34.42 34.99 35.16 35.71 36.53 36.84 37.59
40.57 40.01 39.62 39.39 38.84 37.91 37.86 36.42 35.09 32.49 31.20 31.34 31.10 31.40 30.17 31.80 34.51 29.00 25.97 23.34 23.08 22.05 21.80 21.56 21.24 22.10 22.49 22.77 23.00 26.20 23.27 23.79 24.75 25.83 26.69 27.96 28.80 29.81 31.15 34.07 35.33 35.46 36.64
39.66 39.16 39.10 38.95 38.02 37.43 35.04 35.06 32.83 29.83 30.61 29.55 27.78 28.71 28.76 31.41 30.71 31.55 29.85 28.95 26.88 22.24 20.78 20.26 21.67 21.03 21.96 24.19 26.26 22.05 21.77 20.46 19.41 25.01 24.51 24.71 27.53 27.03 29.00 30.90 35.15 34.10 35.21
38.67 38.09 37.84 38.24 37.37 34.91 34.66 34.17 32.89 29.29 28.82 28.07 27.50 27.28 28.07 29.95 27.31 25.05 25.98 26.12 25.44 26.46 25.81 22.35 20.72 22.00 20.83 22.31 22.13 21.95 22.11 21.80 21.60 24.87 24.80 23.47 26.56 24.96 28.24 31.91 34.25 35.53 35.80
37.50 37.16 36.56 36.65 36.41 35.46 34.29 33.83 31.55 27.27 27.07 27.72 27.48 27.29 26.38 25.19 24.86 24.48 23.21 22.21 22.25 22.75 23.60 24.37 22.34 21.28 22.17 23.43 24.10 25.06 24.52 24.88 25.33 26.13 27.41 23.63 26.44 24.98 27.36 27.94 32.90 34.54 36.16
36.71 36.34 36.62 35.73 34.88 33.61 34.04 32.94 29.74 27.46 27.65 27.54 28.58 28.15 27.84 24.72 26.82 26.61 23.18 21.79 21.03 21.84 25.41 26.96 26.51 27.33 28.08 28.95 29.04 27.87 24.85 23.53 21.24 23.22 25.57 25.46 24.24 23.11 23.87 24.30 28.06 34.08 34.78
36.52 36.12 35.39 34.80 34.19 31.75 33.52 32.86 30.40 25.99 26.41 26.75 27.00 26.76 28.36 24.93 26.04 25.73 21.44 19.77 17.99 19.92 21.58 21.52 22.29 23.55 25.77 26.28 28.68 26.45 23.92 22.49 22.83 22.24 26.28 26.82 26.22 23.99 21.14 24.31 27.94 28.50 27.73
MSLP
1022.76 1023.10 1023.60 1023.82 1023.98 1024.17 1024.09 1024.25 1024.55 1024.80 1024.94 1024.71 1024.81 1024.97 1024.77 1024.57 1024.46 1024.34 1024.35 1023.98 1023.73 1023.48 1023.89 1024.02 1024.17 1024.24 1024.16 1024.41 1024.55 1024.61 1024.36 1024.16 1024.01 1023.73 1023.38 1022.92 1022.51 1022.32 1022.17 1021.74 1021.46 1021.08 1020.68
1022.96 1023.35 1023.41 1023.96 1024.20 1024.34 1024.20 1024.46 1025.01 1024.98 1025.20 1025.29 1025.16 1025.10 1025.07 1024.86 1024.49 1024.42 1024.24 1023.84 1023.85 1023.71 1023.67 1023.99 1023.92 1024.04 1024.03 1024.35 1024.47 1024.55 1024.52 1024.32 1024.18 1023.98 1023.72 1023.35 1022.78 1022.40 1022.23 1022.05 1021.60 1021.25 1021.02
1023.00 1023.49 1023.94 1024.11 1024.29 1024.38 1024.50 1024.66 1024.87 1025.26 1025.50 1025.39 1025.56 1025.46 1025.33 1024.94 1024.61 1024.51 1024.30 1023.91 1023.86 1023.86 1023.70 1023.83 1023.86 1024.02 1024.08 1024.25 1024.31 1024.40 1024.39 1024.27 1024.18 1023.97 1023.76 1023.58 1023.27 1022.93 1022.51 1022.28 1022.18 1021.70 1021.09
1023.47 1023.56 1023.82 1024.11 1024.23 1024.51 1024.46 1025.02 1025.24 1025.69 1025.97 1026.06 1025.97 1025.94 1025.51 1025.03 1024.86 1024.70 1024.27 1023.96 1023.94 1023.99 1023.90 1023.82 1023.91 1023.95 1024.07 1024.13 1024.27 1024.29 1024.20 1024.09 1023.94 1023.89 1024.11 1023.99 1023.67 1023.29 1022.96 1022.38 1021.91 1021.82 1021.25
1023.48 1023.22 1023.92 1024.06 1023.98 1024.38 1024.82 1024.97 1025.44 1025.79 1026.05 1026.05 1025.92 1025.87 1025.68 1025.60 1025.40 1025.06 1024.76 1024.51 1024.51 1024.39 1024.38 1024.25 1024.08 1024.01 1023.95 1024.03 1024.15 1024.20 1024.08 1024.03 1024.17 1024.06 1024.14 1024.08 1023.95 1023.44 1023.02 1022.70 1022.20 1021.53 1021.27
1023.21 1023.40 1023.56 1023.67 1023.99 1024.69 1025.03 1025.09 1025.54 1025.73 1025.85 1025.99 1025.93 1025.90 1025.85 1025.47 1025.44 1025.56 1025.42 1025.03 1025.00 1024.78 1024.55 1024.43 1024.22 1024.08 1024.05 1024.17 1024.30 1024.25 1024.16 1024.04 1024.22 1024.10 1023.91 1023.88 1023.69 1023.28 1023.16 1022.65 1022.28 1021.87 1021.31
1023.12 1023.39 1023.68 1023.98 1024.42 1024.87 1025.16 1025.20 1025.57 1025.73 1025.89 1025.92 1026.10 1026.12 1025.73 1025.54 1025.55 1025.67 1025.56 1025.47 1025.32 1025.07 1024.79 1024.54 1024.54 1024.54 1024.57 1024.49 1024.49 1024.37 1024.04 1023.96 1024.22 1024.19 1024.03 1023.91 1023.73 1023.42 1023.03 1022.62 1022.17 1021.73 1021.35
1023.31 1023.48 1023.94 1024.37 1024.62 1024.94 1025.18 1025.38 1025.52 1025.82 1025.97 1025.87 1026.19 1026.24 1026.23 1025.79 1025.78 1025.72 1025.65 1025.58 1025.79 1025.52 1025.32 1024.97 1024.87 1024.84 1024.86 1024.75 1024.51 1024.16 1023.96 1024.04 1024.08 1024.01 1023.92 1023.86 1023.59 1023.29 1022.96 1022.43 1022.10 1021.59 1021.07
1023.22 1023.41 1023.69 1024.10 1024.44 1024.75 1025.06 1025.16 1025.28 1025.59 1025.92 1025.80 1025.78 1026.25 1026.49 1026.41 1025.93 1025.70 1025.70 1025.53 1025.60 1025.61 1025.56 1025.45 1025.27 1025.10 1024.94 1024.68 1024.37 1024.12 1023.85 1023.67 1023.68 1023.72 1023.61 1023.57 1023.41 1023.08 1022.72 1022.33 1021.98 1021.62 1020.91
1023.05 1023.22 1023.60 1023.87 1024.16 1024.56 1024.97 1025.05 1024.97 1025.30 1025.50 1025.80 1025.85 1025.79 1026.10 1026.46 1026.47 1026.15 1025.99 1025.71 1025.59 1025.53 1025.50 1025.44 1025.19 1025.06 1024.85 1024.65 1024.30 1024.05 1023.77 1023.67 1023.74 1023.65 1023.43 1023.22 1023.08 1022.79 1022.48 1021.98 1021.78 1021.30 1020.69
1022.90 1023.17 1023.70 1024.16 1024.56 1024.76 1025.07 1025.15 1025.19 1025.24 1025.40 1025.77 1025.94 1026.08 1026.16 1026.20 1026.34 1026.61 1026.18 1025.99 1025.71 1025.46 1025.35 1025.22 1025.13 1024.94 1024.40 1024.35 1024.17 1023.83 1023.54 1023.49 1023.51 1023.41 1023.17 1022.92 1022.60 1022.35 1022.10 1021.65 1021.39 1021.09 1020.77
1023.67 1023.75 1024.03 1024.31 1024.60 1024.84 1025.00 1025.05 1025.05 1025.22 1025.28 1025.30 1025.38 1025.60 1025.92 1026.20 1026.30 1026.45 1026.40 1025.90 1025.81 1025.53 1025.43 1024.98 1024.79 1024.80 1024.50 1024.22 1023.89 1023.50 1023.48 1023.38 1023.22 1023.06 1022.81 1022.54 1022.24 1022.00 1021.82 1021.54 1021.10 1020.87 1020.45
1023.66 1023.89 1024.00 1024.34 1024.57 1024.70 1024.89 1025.07 1025.13 1025.18 1025.01 1025.02 1025.04 1025.28 1025.44 1025.69 1025.63 1025.74 1026.01 1026.03 1025.89 1025.40 1025.30 1025.03 1024.74 1024.50 1024.12 1023.86 1023.75 1023.45 1023.34 1023.16 1022.85 1022.62 1022.39 1022.12 1021.81 1021.59 1021.35 1021.11 1020.88 1020.48 1019.94
1022.87 1023.14 1023.76 1023.98 1024.32 1024.68 1024.94 1025.05 1025.02 1024.94 1024.81 1024.98 1024.93 1024.94 1025.08 1025.23 1025.14 1025.50 1026.00 1026.21 1025.88 1025.61 1025.23 1025.06 1024.51 1024.15 1023.86 1023.91 1023.61 1023.35 1023.17 1022.81 1022.57 1022.34 1022.00 1021.70 1021.35 1021.04 1020.76 1020.44 1020.16 1019.81 1019.48
1023.05 1023.36 1023.62 1023.98 1024.35 1024.70 1024.84 1024.91 1025.22 1025.17 1025.11 1025.09 1024.99 1024.77 1024.84 1025.00 1025.20 1025.18 1025.30 1025.44 1025.90 1025.78 1024.90 1024.75 1024.58 1024.10 1024.02 1023.85 1023.49 1023.15 1022.98 1022.69 1022.34 1021.94 1021.51 1021.07 1020.69 1020.35 1019.99 1019.68 1019.37 1019.05 1018.77
1023.73 1023.76 1023.82 1023.91 1024.33 1024.61 1024.81 1024.94 1025.16 1025.18 1025.24 1025.15 1025.08 1025.10 1025.14 1025.11 1025.19 1025.28 1025.29 1025.36 1025.50 1025.68 1025.53 1025.09 1024.76 1024.47 1024.16 1023.71 1023.32 1023.15 1022.80 1022.21 1021.81 1021.38 1020.79 1020.29 1019.92 1019.58 1019.34 1019.06 1018.80 1018.38 1018.01
1023.49 1023.82 1024.01 1024.08 1024.28 1024.56 1024.73 1024.86 1024.98 1025.04 1025.17 1025.22 1025.07 1025.03 1025.00 1024.92 1024.97 1025.27 1025.30 1025.49 1025.78 1025.87 1025.80 1025.23 1024.92 1024.60 1024.26 1023.94 1023.33 1022.85 1022.46 1021.91 1021.26 1020.82 1020.34 1019.76 1019.33 1018.99 1018.58 1018.27 1018.04 1017.70 1017.20
1023.14 1023.50 1023.92 1024.00 1024.20 1024.39 1024.18 1024.38 1024.60 1024.76 1024.98 1025.26 1025.17 1025.05 1025.23 1025.21 1025.13 1025.30 1025.45 1025.66 1025.58 1025.54 1025.69 1025.33 1024.96 1024.66 1024.29 1023.76 1023.17 1022.70 1021.97 1021.37 1020.91 1020.43 1019.83 1019.28 1018.73 1018.26 1017.96 1017.60 1017.23 1016.91 1016.66
1023.26 1023.64 1023.89 1024.00 1024.08 1023.99 1023.83 1023.95 1024.12 1024.46 1024.68 1024.87 1025.03 1024.98 1024.81 1024.84 1025.09 1025.16 1025.28 1025.61 1025.37 1025.11 1025.33 1025.38 1024.94 1024.58 1024.08 1023.49 1022.86 1022.28 1021.79 1021.25 1020.76 1020.08 1019.51 1018.92 1018.24 1017.76 1017.36 1016.96 1016.49 1016.17 1015.97
1023.40 1023.60 1023.73 1023.96 1024.01 1023.93 1023.72 1023.67 1023.75 1024.02 1024.30 1024.56 1024.73 1024.83 1024.80 1024.67 1024.64 1024.69 1024.79 1024.92 1025.01 1025.11 1025.17 1025.10 1024.76 1024.35 1023.88 1023.22 1022.74 1022.24 1021.67 1021.19 1020.48 1019.83 1019.14 1018.52 1017.85 1017.33 1016.83 1016.41 1015.99 1015.59 1015.04
1023.16 1023.23 1023.42 1023.58 1023.62 1023.76 1023.66 1023.64 1023.66 1023.87 1024.14 1024.23 1024.29 1024.38 1024.33 1024.21 1023.93 1024.31 1024.52 1024.65 1024.86 1024.96 1024.89 1024.77 1024.43 1024.06 1023.52 1022.95 1022.58 1022.10 1021.63 1020.86 1019.92 1019.57 1018.62 1018.00 1017.71 1017.01 1016.40 1015.88 1015.37 1015.16 1014.60
1022.92 1023.05 1023.12 1023.25 1023.35 1023.53 1024.00 1023.97 1023.92 1023.98 1024.19 1024.20 1024.33 1024.19 1024.20 1023.76 1023.89 1024.22 1024.48 1024.51 1024.54 1024.56 1024.45 1024.38 1024.00 1023.65 1022.99 1022.70 1022.21 1021.89 1021.32 1020.75 1019.70 1018.65 1018.53 1017.73 1017.24 1016.60 1015.92 1015.30 1014.71 1014.30 1014.34
1022.95 1022.91 1022.75 1022.67 1022.77 1022.97 1023.25 1023.61 1023.80 1024.06 1024.09 1024.28 1024.10 1024.09 1023.67 1023.74 1024.11 1024.30 1024.39 1024.36 1024.30 1024.06 1023.97 1023.89 1023.64 1023.31 1022.97 1022.48 1021.94 1021.35 1020.79 1020.45 1019.72 1018.48 1018.36 1017.34 1016.54 1016.01 1015.26 1014.48 1014.01 1013.74 1013.48
1022.72 1022.74 1022.64 1022.55 1022.39 1022.57 1022.90 1023.15 1023.53 1023.76 1023.76 1024.04 1023.96 1023.90 1023.70 1023.69 1024.06 1024.04 1024.14 1024.13 1024.06 1023.87 1023.63 1023.31 1023.14 1022.91 1022.42 1021.82 1021.37 1020.77 1020.17 1019.47 1018.79 1017.96 1017.76 1016.94 1015.70 1015.39 1014.64 1014.04 1013.29 1012.90 1012.69
1022.44 1022.25 1022.09 1022.10 1022.16 1022.32 1022.71 1023.05 1023.44 1023.66 1023.84 1023.70 1023.71 1023.46 1023.25 1023.68 1023.74 1023.73 1023.88 1023.89 1023.75 1023.48 1023.20 1022.86 1022.66 1022.17 1021.59 1020.97 1020.43 1020.02 1019.75 1019.31 1018.39 1017.41 1016.87 1016.49 1015.36 1014.86 1014.13 1013.60 1012.91 1012.38 1012.22
1021.76 1021.82 1021.77 1021.60 1021.66 1022.03 1022.27 1022.33 1022.63 1023.04 1023.45 1023.39 1023.33 1023.19 1023.09 1023.44 1023.51 1023.49 1023.52 1023.63 1023.57 1023.24 1022.99 1022.70 1022.41 1021.94 1021.28 1020.72 1020.09 1019.84 1019.56 1019.18 1018.40 1017.00 1015.96 1015.85 1015.00 1014.79 1014.09 1013.16 1012.64 1012.05 1011.86
Wind_Speed
4 4 4 5 4 3 4 5 5 5 5 6 6 6 5 6 6 4 1 2 7 11 9 9 10 11 12 12 14 16 18 18 18 18 19 19 19 19 17 19 20 20 18
5 5 5 5 4 3 4 5 4 5 5 5 5 6 6 5 6 6 4 1 7 10 10 8 8 11 13 10 12 13 15 16 15 18 18 18 19 19 20 19 20 20 20
6 6 4 4 4 3 6 5 5 5 5 5 6 6 4 6 5 7 6 4 5 8 9 9 10 12 12 11 13 13 15 15 12 16 17 17 18 20 22 22 21 21 20
6 6 5 4 3 2 4 5 4 4 4 4 3 4 4 6 7 7 7 5 2 0 5 9 11 12 11 12 15 15 17 17 15 14 14 18 20 20 20 22 23 21 21
5 6 5 3 4 5 5 3 4 3 2 3 3 4 5 5 6 6 10 8 7 4 3 5 12 12 13 12 12 14 16 18 15 17 16 16 18 20 20 20 21 23 22
6 5 5 4 5 4 3 3 3 3 2 1 3 4 4 5 4 4 5 5 5 6 4 5 4 4 8 10 10 11 14 16 16 19 19 20 20 19 19 21 20 21 23
5 5 4 4 4 5 3 2 2 3 2 3 2 3 3 2 5 3 4 5 6 6 7 5 4 3 4 11 10 12 15 11 14 16 16 15 18 22 19 20 21 21 21
5 6 6 5 5 4 5 3 3 1 1 1 0 0 4 4 3 5 4 4 6 4 7 6 6 5 4 1 5 12 12 8 12 13 14 15 16 17 21 20 22 22 21
6 7 6 5 4 4 2 0 1 2 2 2 2 2 3 2 2 2 3 3 5 4 4 5 6 6 5 4 6 8 8 7 11 12 12 14 17 19 20 20 23 21 22
6 5 6 6 5 3 1 1 1 2 3 2 2 1 2 3 2 5 3 3 4 4 4 3 4 5 5 4 8 11 12 5 5 8 11 14 17 19 21 23 20 23 23
6 3 6 7 6 4 3 4 4 4 1 1 2 1 1 1 1 2 3 3 2 3 2 3 4 4 6 5 5 6 4 5 5 9 13 17 18 19 21 23 21 23 23
5 6 6 6 5 4 3 3 3 3 3 3 2 3 3 2 3 2 3 3 3 3 2 3 4 4 5 5 9 11 5 7 8 11 15 17 19 19 20 21 25 24 24
4 5 5 5 3 4 6 5 4 4 4 3 3 2 2 3 3 2 1 4 3 3 3 2 3 5 6 5 4 9 10 10 12 15 17 19 20 20 22 23 24 26 28
4 6 5 5 5 5 3 4 3 3 4 3 2 1 2 2 2 2 2 2 3 3 2 5 3 5 4 3 5 12 5 11 13 17 18 19 21 23 24 24 24 26 27
4 6 6 5 4 3 3 5 4 4 3 1 2 2 1 2 1 1 2 2 2 4 7 4 3 4 4 3 7 6 6 12 18 17 19 20 22 24 23 24 24 25 24
3 5 5 4 2 3 4 4 3 4 5 3 2 4 2 1 2 2 2 2 1 3 5 2 3 4 4 6 8 7 8 19 16 18 20 20 20 21 23 23 23 23 24
4 4 2 1 2 3 1 2 2 4 4 3 3 3 2 2 1 2 3 3 3 2 4 4 3 3 5 6 8 7 8 8 8 15 20 21 19 21 21 20 19 22 24
5 4 2 1 3 2 2 2 2 2 2 3 3 3 4 2 2 3 3 2 1 2 1 8 5 6 5 6 8 8 9 9 9 15 20 21 20 17 17 16 18 18 19
5 3 1 2 5 4 2 4 3 2 2 1 4 5 3 2 1 1 0 1 1 2 2 2 7 6 6 6 8 8 6 7 8 18 18 19 19 20 16 15 15 17 20
4 1 2 4 5 4 4 3 3 4 4 3 3 4 4 2 4 4 3 3 2 2 2 3 6 7 7 8 5 6 7 6 8 9 13 15 16 15 18 17 17 18 20
2 2 4 6 4 5 3 5 5 5 3 1 3 4 1 3 5 5 0 2 2 2 3 5 6 7 8 8 8 5 7 9 10 7 8 6 7 8 8 13 13 13 20
3 4 4 4 5 3 7 8 6 4 2 0 3 5 3 3 6 6 5 4 3 3 4 3 6 8 10 7 4 5 7 8 9 4 3 11 7 8 8 7 13 4 17
5 6 6 5 5 6 12 11 9 4 3 3 4 4 3 4 5 4 1 4 7 11 7 5 8 6 7 7 5 9 9 8 10 11 7 11 7 7 8 8 14 14 12
5 5 5 6 5 6 14 13 10 5 3 4 4 3 3 3 4 3 1 3 4 5 6 6 4 7 7 7 7 8 10 11 9 9 7 8 7 7 7 6 17 17 15
6 5 5 6 5 3 13 11 8 4 4 4 4 4 3 3 5 1 1 4 5 6 8 13 17 17 19 19 15 7 5 7 9 10 4 6 4 4 3 3 5 7 7
4 4 5 5 6 6 14 15 10 3 5 3 4 1 4 6 3 2 2 3 5 7 7 7 8 11 11 10 12 5 4 7 8 10 3 5 7 2 4 3 3 4 4
Wind_Direction
86 113 109 96 92 99 86 65 44 39 26 27 20 7 355 5 1 358 320 198 109 99 89 78 64 47 38 35 27 17 9 5 4 1 356 352 348 354 353 347 350 350 340
82 82 80 78 75 68 61 76 67 52 31 27 4 352 356 3 358 347 315 189 148 122 116 100 66 34 28 37 23 16 7 360 360 357 351 352 349 351 352 347 339 337 338
98 103 105 96 93 85 88 68 52 43 31 13 4 344 7 358 346 345 332 1 139 151 141 104 57 36 50 27 12 9 356 352 355 351 348 351 350 346 342 340 338 329 327
123 116 103 93 120 88 87 77 64 42 30 14 334 351 349 355 344 342 330 328 189 80 163 96 56 53 43 19 10 357 348 354 342 346 5 353 344 340 337 333 331 330 323
147 109 123 130 76 83 85 89 65 100 50 360 355 14 353 345 338 2 20 25 20 41 80 45 54 45 29 17 4 350 346 334 355 345 348 343 333 331 328 327 327 325 325
148 135 126 109 79 92 79 68 88 39 89 57 20 357 340 314 339 21 3 8 18 32 36 36 42 29 48 22 16 356 334 332 347 330 330 336 333 329 331 321 318 321 320
115 104 85 86 81 94 94 76 115 69 347 13 45 326 292 29 331 359 5 5 13 4 5 6 14 34 36 53 25 347 336 342 326 321 327 332 335 331 324 322 321 317 318
120 106 103 94 82 74 59 61 76 2 333 17 338 22 344 324 22 339 13 20 15 5 5 2 17 27 44 18 330 341 329 317 308 305 310 319 321 322 320 320 323 317 318
124 126 128 127 113 107 91 74 274 132 207 292 129 141 345 258 314 320 296 29 22 19 359 7 22 4 341 325 323 317 296 288 285 306 312 313 314 314 312 315 312 317 314
139 141 154 154 143 124 111 289 182 223 160 237 346 99 170 177 316 319 336 341 354 345 357 347 5 334 335 332 335 331 326 309 296 299 301 302 303 307 307 304 302 308 309
166 120 74 80 72 67 39 34 12 360 54 135 173 241 275 296 249 225 289 300 331 330 310 346 337 315 333 334 319 311 312 265 283 286 293 298 303 304 304 301 306 294 301
95 91 90 88 86 68 33 358 347 319 269 234 200 176 176 195 221 234 283 280 254 265 281 305 312 300 299 295 297 320 323 314 295 313 312 306 304 303 301 298 296 293 292
118 110 90 73 57 37 21 7 351 331 302 258 219 210 173 222 215 218 279 312 275 286 274 283 297 281 284 282 299 333 346 329 323 318 314 309 305 301 297 293 289 287 288
126 108 102 75 51 35 12 341 320 308 329 359 26 260 243 255 216 116 222 237 305 272 287 272 262 272 283 329 336 342 315 329 321 311 308 304 300 296 293 292 290 282 279
106 87 83 69 40 4 321 322 3 9 23 357 292 296 303 270 298 185 219 197 218 300 300 294 298 333 328 339 327 328 324 308 302 306 301 297 297 295 294 293 291 287 281
71 78 67 73 28 321 340 82 30 350 359 351 32 41 45 41 18 313 279 306 296 290 295 9 318 309 340 330 321 321 292 300 296 292 292 294 301 299 296 294 290 290 283
124 97 81 57 320 302 80 78 28 11 12 17 21 56 6 322 319 355 34 50 43 37 298 306 306 314 326 321 313 300 296 297 286 303 300 298 297 295 291 285 286 282 278
142 138 159 357 290 192 158 54 80 80 36 353 360 2 324 13 9 50 88 58 94 257 280 322 316 322 302 294 294 298 301 301 301 301 301 299 299 305 317 304 286 277 277
136 117 80 281 266 192 131 125 124 139 103 335 338 332 293 299 15 137 32 287 301 345 323 297 305 304 294 296 302 299 293 304 313 312 313 308 304 302 311 309 303 285 283
115 114 261 272 270 192 186 167 127 108 84 69 3 336 315 114 180 228 232 255 299 318 284 282 294 297 298 299 285 300 310 307 300 303 301 296 299 305 305 303 292 296 298
201 251 261 263 258 215 215 162 147 136 123 36 342 326 265 258 286 204 173 321 322 284 274 273 287 294 295 302 301 301 300 301 298 289 281 289 306 293 291 289 282 312 295
290 264 249 267 278 209 172 159 153 160 169 199 294 294 289 349 72 81 74 35 338 306 278 255 291 289 293 296 293 293 299 307 308 256 347 300 295 290 283 278 276 290 300
268 253 253 257 263 187 182 173 167 176 180 272 276 273 277 115 129 144 352 339 326 319 306 291 290 300 312 300 283 299 295 288 283 285 288 289 288 274 275 279 287 277 231
280 264 254 256 260 196 188 178 173 173 195 257 276 264 277 172 184 151 356 327 304 298 295 295 307 294 275 278 266 275 285 284 282 282 276 277 294 281 283 272 277 284 278
255 255 241 261 268 195 186 172 160 188 233 246 268 293 304 146 173 87 357 315 303 301 309 311 314 312 311 310 306 311 309 322 312 305 276 268 272 272 249 272 275 274 288
263 274 275 189 187 183 190 186 184 161 209 224 253 248 140 162 169 327 252 260 285 289 290 304 303 305 299 296 316 311 299 312 304 307 289 283 284 255 313 257 280 287 276